Content
SEND FEEDBACK

Daily
Averages
Monthly
Summary
United States of America

EARTH CITY, MISSOURI


Home > North America > United States > Missouri
Elevation: 476 feet     Latitude: 38 46N     Longitude: 090 30W

WEATHER
 
SELECT A DAY
Number of Records: 208,273;   Date Range: 1/1/95 - 12/18/14
 
SHARE

PRINT THIS DATA

[ ← Previous Day ]
WEATHER ALMANAC - MARCH 3, 2013
[ Next Day → ]
[ °C ]   °F
Weather ElementAverageHighLow
Temperature31.9 °F39.9 °F (2:51 pm)19.4 °F (5:51 am)
Dewpoint17.6 °F24.1 °F (11:51 pm)12.9 °F (2:51 pm)
Humidity57.7 %80 % (5:51 am)33 % (2:51 pm)
Barometer30.15 in30.25 in (1:51 am)30.05 in (7:51 pm)
Wind Speed4 mph10.4 mph (6:51 pm)
Weather ElementAverage
Visibility9.4 mi
Wind DirectionESE (97 °)

Weather ElementTotal
Precipitation---
Heating Degree Days35.4 (Base 65)
Averaged from 23 records on March 3, 2013
WEATHER CONDITIONS BREAKOUT
WIND DIRECTION BREAKOUT
WEATHER BY HOUR - MARCH 3, 2013
[ °C ]   °F
Local TimeTemperatureDewpointHumidityBarometerVisibilityWind DirectionWind SpeedGust SpeedPrecipitationEventsConditions
1:51 AM21.9 °F15.1 °F75 %30.25 in10.0 miWest (280°)3.5 mphClear
2:51 AM21.0 °F15.1 °F78 %30.24 in10.0 miWest (280°)3.5 mphClear
3:51 AM21.0 °F15.1 °F78 %30.22 in10.0 miWSW (240°)3.5 mphClear
4:51 AM21.0 °F15.1 °F78 %30.22 in9.0 miWest (260°)3.5 mphClear
5:51 AM19.4 °F14.0 °F80 %30.18 in8.0 miCalmClear
6:51 AM21.0 °F15.1 °F78 %30.22 in6.0 miCalmHaze
7:51 AM25.0 °F18.0 °F75 %30.23 in6.0 miCalmHaze
8:51 AM28.0 °F18.0 °F66 %30.23 in8.0 miCalmScattered Clouds
9:51 AM32.0 °F17.1 °F54 %30.23 in10.0 miCalmScattered Clouds
10:51 AM34.0 °F18.0 °F52 %30.22 in10.0 miCalmMostly Cloudy
11:51 AM35.1 °F16.0 °F46 %30.19 in10.0 miCalmMostly Cloudy
12:51 PM36.0 °F15.1 °F43 %30.15 in10.0 miCalmOvercast
1:51 PM39.2 °F15.8 °F39 %30.10 in10.0 miCalmOvercast
2:51 PM39.9 °F12.9 °F33 %30.11 in10.0 miCalmOvercast
3:51 PM39.0 °F19.0 °F45 %30.10 in10.0 miESE (110°)8.1 mphOvercast
4:51 PM39.0 °F14.0 °F36 %30.10 in10.0 miSSE (150°)8.1 mphOvercast
5:51 PM39.0 °F18.0 °F43 %30.09 in9.0 miSSE (150°)6.9 mph0.00 in
6:51 PM37.0 °F21.9 °F54 %30.09 in10.0 miESE (120°)10.4 mph0.00 inOvercast
7:51 PM37.4 °F21.2 °F52 %30.05 in10.0 miESE (110°)9.2 mphOvercast
8:51 PM37.0 °F21.9 °F54 %30.07 in10.0 miESE (120°)9.2 mphOvercast
9:51 PM37.0 °F21.0 °F52 %30.08 in10.0 miSSE (150°)9.2 mphOvercast
10:51 PM37.0 °F23.0 °F57 %30.07 in10.0 miSE (130°)10.4 mphOvercast
11:51 PM37.0 °F24.1 °F59 %30.07 in10.0 miSE (130°)6.9 mphOvercast
Hourly data recorded from KSTL, located miles away from Earth City, Missouri







STORIES FROM OUR PARTNERS